[[{"header":{"parameterUnit":"m.s-1","parameterCategory":1,"la1":30.2991,"la2":30.254,"lo1":-89.0895,"lo2":-89.0444,"dy":0.0017,"dx":0.0017,"nx":28,"ny":28,"refTime":"2025-06-15T21:00:00:Z","depth":0,"parameterNumber":2,"parameterNumberName":"U-component_of_WINDS"},"data":[0,0,0,0,0,0,0,0,0,0,0,0,0,0,0,0,0,0,0,0,0,0,0,0,0,0,0,0,0,0,0,0,0,0,0,0,0,0,0,0,0,0,0,0,0,0,0,0,0,0,0,0,0,0,0,0,0,0,2.5671,2.5673,0,2.585,2.5852,2.5854,2.5857,2.5855,2.5853,2.5851,2.6038,2.6044,2.6051,0,0,0,0,0,0,0,0,0,0,0,0,0,2.5335,2.5341,2.5671,2.5673,2.5675,2.5849,2.5852,2.5854,2.5858,2.5855,2.5852,2.585,2.6035,2.6044,2.6052,0,0,0,0,0,0,0,0,0,0,0,0,0,2.5494,2.5343,2.567,2.5698,2.5702,2.5849,2.5852,2.5855,2.5858,2.5855,2.5851,2.5848,2.6032,2.6043,2.6053,2.6186,0,0,2.6086,2.609,0,0,0,0,0,0,0,0,2.5485,2.5506,2.5692,2.5696,2.5701,2.5828,2.5802,2.5966,2.5859,2.5799,2.5851,2.5847,2.5971,2.5986,2.6027,2.6194,2.6202,2.6086,2.6093,2.6097,2.61,0,0,0,0,0,0,0,2.5474,2.5499,2.5742,2.5694,2.57,2.5702,2.5721,2.5833,2.5902,2.5804,2.5805,2.5826,2.5973,2.6017,2.6032,2.6205,2.6086,2.6096,2.6102,2.6106,2.6487,2.649,0,0,0,0,0,0,2.5457,2.549,2.5736,2.5747,2.5583,2.5711,2.5732,2.5791,2.59,2.5914,2.5828,2.5825,2.6,2.6019,2.6038,2.6198,2.6097,2.6107,2.6113,2.6483,2.6488,2.6492,0,0,0,0,0,0,2.545,2.5479,2.5729,2.5619,2.565,2.572,2.5786,2.5796,2.584,2.5919,2.5931,2.5861,2.5999,2.6023,2.6148,2.6204,2.6112,2.6122,2.6479,2.6484,2.649,2.6519,0,0,0,0,0,0,2.544,2.5476,2.5527,2.562,2.5656,2.5835,2.5789,2.5802,2.5858,2.5855,2.5952,2.5965,2.5998,2.6132,2.6158,2.6217,2.613,2.6474,2.6481,2.6488,2.6514,2.6525,2.6535,0,0,0,0,0,2.5428,2.553,2.553,2.5559,2.5721,2.5838,2.5859,2.5894,2.5862,2.5914,2.5964,2.5962,2.6194,2.6145,2.6175,2.6237,2.647,2.6479,2.6487,2.6509,2.6523,2.6535,0,0,0,0,0,0,2.5445,2.5543,2.5543,2.5678,2.5749,2.5839,2.5905,2.5908,2.5991,2.5986,2.6026,2.6048,2.6171,2.6217,2.616,2.637,2.6329,2.6343,2.6335,2.6349,2.636,2.6345,2.6139,0,0,0,0,0,2.5463,2.555,2.5631,2.5742,2.5778,2.5835,2.5888,2.5907,2.5984,2.6014,2.6074,2.6149,2.6238,2.6297,2.6384,2.6521,2.6541,2.6579,2.6589,2.6598,2.661,2.6683,2.67,2.6519,2.6519,2.6519,0,0,2.5504,2.5568,2.5621,2.5747,2.5805,2.5893,2.5861,2.5956,2.6022,2.603,2.6149,2.6196,2.6282,2.6412,2.6473,2.6455,2.6664,2.6609,2.6615,2.6622,2.6693,2.671,2.6725,2.6525,2.6524,2.6523,0,0,2.5623,2.5681,2.5778,2.5835,2.5922,2.5959,2.5983,2.6071,2.6101,2.6222,2.6228,2.6308,2.6462,2.6522,2.6573,2.6712,2.6712,2.6739,2.6795,2.6866,2.688,2.6893,2.694,2.6957,2.6751,2.6751,2.6751,0,2.5662,2.5795,2.5828,2.5922,2.5977,2.5986,2.6084,2.6139,2.6251,2.6288,2.6266,2.6457,2.6516,2.6659,2.6692,2.6734,2.6761,2.6728,2.6875,2.6889,2.6901,2.6946,2.6964,2.6754,2.6753,2.6753,2.6753,0,2.5838,2.593,2.5998,2.6102,2.6165,2.6261,2.6309,2.6368,2.6382,2.6422,2.6544,2.6614,2.6714,2.675,2.6767,2.6895,2.6881,2.6867,2.6826,2.692,2.6963,2.6981,2.6757,2.6756,2.6755,2.6755,0,0,2.5972,2.6092,2.6116,2.6162,2.6258,2.6329,2.6426,2.6521,2.657,2.6647,2.6728,2.6857,2.6843,2.6901,2.6924,2.6986,2.7088,2.6964,2.6967,2.6982,2.7231,2.724,2.7259,2.7089,2.7093,2.7096,2.7223,0,2.6099,2.6268,2.6299,2.6447,2.653,2.6539,2.6623,2.669,2.6729,2.6807,2.6851,2.694,2.6917,2.6951,2.7013,2.7062,2.7138,2.7054,2.7164,2.7167,2.714,2.7282,2.7292,2.7409,2.7241,2.7244,2.7246,0,2.6269,2.6347,2.6502,2.6583,2.6619,2.6694,2.6782,2.6857,2.6933,2.6957,2.702,2.7035,2.7135,2.709,2.7227,2.7169,2.7216,2.7247,2.7252,2.7263,2.7211,2.7294,2.7448,2.7464,2.7273,2.7271,2.7269,0,2.6348,2.6492,2.6602,2.6642,2.674,2.6792,2.6836,2.6909,2.6963,2.7042,2.7077,2.7167,2.7216,2.7285,2.7324,2.7288,2.7457,2.7417,2.7479,2.7478,2.7513,2.751,2.7674,2.7547,2.7547,2.7547,2.7546,0,2.6485,2.6579,2.6638,2.6706,2.6811,2.6846,2.695,2.6993,2.7057,2.7133,2.7148,2.7219,2.7267,2.7345,2.7377,2.7484,2.7507,2.7528,2.7535,2.7526,2.7522,2.7556,2.7548,2.7551,2.755,2.7549,2.7549,0,2.659,2.6634,2.6754,2.6836,2.6859,2.6933,2.7004,2.707,2.7108,2.7204,2.7229,2.729,2.7382,2.7427,2.7544,2.7564,2.7685,2.7688,2.7658,2.766,2.7719,2.7712,2.7909,2.7936,2.7793,2.7794,2.7795,0,2.6673,2.6745,2.6834,2.6885,2.6929,2.7012,2.7067,2.7105,2.7162,2.7253,2.7307,2.74,2.7476,2.7623,2.7678,2.7766,2.777,2.7833,2.7783,2.7771,2.7768,2.7762,2.7768,2.7841,2.7842,2.7843,2.7844,0,2.6816,2.6833,2.6911,2.6996,2.706,2.713,2.7198,2.7239,2.7288,2.7351,2.7444,2.7503,2.762,2.7711,2.7802,2.7848,2.7854,2.7859,2.7878,2.7868,2.7847,2.7857,2.768,2.7855,2.7854,2.7853,2.7852,2.7852,2.6911,2.6974,2.7045,2.7131,2.7186,2.7248,2.7313,2.7359,2.7437,2.7533,2.7551,2.765,2.7723,2.7846,2.7894,2.7972,2.7958,2.7986,2.7993,2.7998,2.8,2.7836,2.799,2.7989,2.7989,2.7989,2.7989,0,2.7051,2.7097,2.7176,2.7269,2.7336,2.7334,2.7409,2.7466,2.7552,2.7619,2.7692,2.7798,2.7886,2.7947,2.8037,2.8087,2.8092,2.8109,2.8105,2.8115,2.8009,2.7982,2.8103,2.8103,2.8103,2.8103,2.8103,2.8103,2.7132,2.7237,2.7263,2.7395,2.7441,2.7536,2.7579,2.7636,2.769,2.7807,2.7879,2.7918,2.7982,2.8076,2.8156,2.8172,2.8203,2.822,2.8235,2.8135,2.8122,2.8111,2.8086,2.8227,2.8227,2.8334,2.8335,2.8336]},{"header":{"parameterUnit":"m.s-1","parameterCategory":1,"la1":30.2991,"la2":30.254,"lo1":-89.0895,"lo2":-89.0444,"dy":0.0017,"dx":0.0017,"nx":28,"ny":28,"refTime":"2025-06-15T21:00:00:Z","depth":0,"parameterNumber":3,"parameterNumberName":"V-component_of_WINDS"},"data":[0,0,0,0,0,0,0,0,0,0,0,0,0,0,0,0,0,0,0,0,0,0,0,0,0,0,0,0,0,0,0,0,0,0,0,0,0,0,0,0,0,0,0,0,0,0,0,0,0,0,0,0,0,0,0,0,0,0,2.1825,2.1827,0,2.1988,2.199,2.1992,2.1982,2.1979,2.1977,2.1975,2.2146,2.2152,2.2159,0,0,0,0,0,0,0,0,0,0,0,0,0,2.1509,2.1514,2.1825,2.1827,2.1829,2.1988,2.199,2.1992,2.1982,2.1979,2.1976,2.1974,2.2143,2.2151,2.216,0,0,0,0,0,0,0,0,0,0,0,0,0,2.1656,2.1516,2.1825,2.1843,2.1846,2.1987,2.199,2.1993,2.1983,2.1979,2.1976,2.1972,2.2141,2.2151,2.2161,2.2295,0,0,2.2192,2.2196,0,0,0,0,0,0,0,0,2.1648,2.1668,2.1838,2.1842,2.1846,2.1961,2.1941,2.2094,2.1984,2.1931,2.1975,2.1971,2.2087,2.2102,2.214,2.2303,2.2311,2.2193,2.2199,2.2203,2.2206,0,0,0,0,0,0,0,2.1638,2.1661,2.189,2.1841,2.1846,2.1844,2.1861,2.197,2.2028,2.1936,2.1935,2.1954,2.2089,2.2131,2.2144,2.2313,2.2192,2.2201,2.2208,2.2212,2.2593,2.2597,0,0,0,0,0,0,2.1623,2.1652,2.1885,2.1895,2.1736,2.1853,2.1872,2.1928,2.2026,2.2038,2.1957,2.1953,2.2115,2.2132,2.215,2.2314,2.2203,2.2213,2.2219,2.2589,2.2594,2.2599,0,0,0,0,0,0,2.1616,2.1644,2.1878,2.1774,2.1803,2.1862,2.1925,2.1933,2.1974,2.2043,2.2053,2.1989,2.2113,2.2136,2.2259,2.2319,2.2217,2.2227,2.2585,2.2591,2.2597,2.2642,0,0,0,0,0,0,2.1607,2.1641,2.1692,2.1775,2.1809,2.1983,2.1929,2.1939,2.1992,2.1988,2.2075,2.2086,2.2112,2.2244,2.2269,2.2331,2.2234,2.258,2.2587,2.2595,2.2635,2.2648,2.266,0,0,0,0,0,2.1596,2.17,2.1695,2.1723,2.1874,2.1987,2.2006,2.2032,2.1996,2.2049,2.2092,2.2084,2.2308,2.2256,2.2285,2.2351,2.2576,2.2585,2.2594,2.2629,2.2646,2.266,0,0,0,0,0,0,2.1625,2.1711,2.1707,2.184,2.1906,2.1985,2.2051,2.2049,2.2127,2.2121,2.2151,2.2171,2.2294,2.2335,2.2275,2.2486,2.2438,2.2453,2.2455,2.2471,2.2483,2.2471,2.2243,0,0,0,0,0,2.1647,2.173,2.1801,2.1912,2.1945,2.1992,2.2043,2.2057,2.2127,2.2155,2.2207,2.2277,2.2363,2.2419,2.2502,2.264,2.2659,2.27,2.2713,2.2723,2.2736,2.2811,2.283,2.2629,2.2628,2.2628,0,0,2.1693,2.175,2.1801,2.1919,2.1972,2.2058,2.2016,2.211,2.2174,2.217,2.2288,2.2329,2.2408,2.2539,2.2599,2.2577,2.2795,2.2734,2.2742,2.2749,2.2822,2.2841,2.2858,2.2635,2.2634,2.2633,0,0,2.1821,2.1873,2.197,2.2023,2.2103,2.2133,2.2157,2.2236,2.2262,2.2382,2.2379,2.2457,2.2605,2.2661,2.2709,2.2857,2.2852,2.2883,2.2949,2.3022,2.3038,2.3052,2.3105,2.3123,2.2896,2.2896,2.2896,0,2.1869,2.1998,2.2021,2.2115,2.2167,2.2164,2.2264,2.2315,2.2418,2.2454,2.2427,2.2612,2.2665,2.2809,2.2844,2.2883,2.2911,2.2874,2.3033,2.3048,2.3062,2.3112,2.3132,2.2899,2.2899,2.2898,2.2898,0,2.2053,2.2142,2.2212,2.2309,2.2369,2.2465,2.2504,2.2562,2.257,2.2604,2.2725,2.2788,2.2884,2.2919,2.2929,2.3064,2.3047,2.3027,2.2979,2.3084,2.3132,2.3151,2.2904,2.2903,2.2902,2.2901,0,0,2.2206,2.2313,2.2338,2.2382,2.2469,2.2539,2.2635,2.2727,2.2776,2.2847,2.2928,2.3052,2.3033,2.3088,2.3104,2.3168,2.328,2.314,2.3142,2.3163,2.3433,2.3448,2.347,2.3277,2.3281,2.3284,2.3426,0,2.2343,2.2511,2.2534,2.2684,2.2767,2.2765,2.2848,2.2911,2.2945,2.3021,2.3058,2.3146,2.3114,2.3147,2.321,2.3253,2.3335,2.3243,2.3354,2.3357,2.3334,2.3495,2.3512,2.3643,2.3445,2.3448,2.345,0,2.2526,2.2599,2.2757,2.2831,2.2866,2.2941,2.3026,2.3099,2.317,2.319,2.3249,2.3257,2.3357,2.3304,2.3442,2.3379,2.3425,2.3453,2.3459,2.3471,2.3411,2.3511,2.3685,2.3705,2.348,2.3478,2.3476,0,2.2621,2.276,2.2871,2.2909,2.2999,2.3051,2.3091,2.3158,2.3211,2.3286,2.3321,2.3407,2.3454,2.3521,2.3552,2.351,2.3688,2.3638,2.3708,2.3707,2.3746,2.3743,2.393,2.3775,2.3775,2.3775,2.3774,0,2.2771,2.2868,2.2915,2.2984,2.3092,2.3117,2.3224,2.3262,2.3322,2.3399,2.3403,2.3475,2.3511,2.3589,2.3613,2.3724,2.3745,2.3765,2.377,2.3765,2.3762,2.3796,2.3788,2.378,2.3779,2.3778,2.3777,0,2.2896,2.2932,2.3054,2.3127,2.3148,2.3224,2.3288,2.3355,2.3388,2.3485,2.3509,2.356,2.3652,2.3689,2.3802,2.3818,2.3945,2.3944,2.3921,2.3923,2.3991,2.3984,2.4206,2.4237,2.4061,2.4063,2.4064,0,2.299,2.3064,2.3145,2.3196,2.3237,2.332,2.3373,2.3401,2.3457,2.3543,2.36,2.3691,2.3765,2.3911,2.3959,2.4045,2.4046,2.4118,2.4059,2.4051,2.4047,2.4043,2.405,2.4129,2.4131,2.4132,2.4133,0,2.3153,2.3167,2.3243,2.3326,2.339,2.3457,2.3522,2.3564,2.3602,2.3665,2.3757,2.3815,2.3929,2.4019,2.4107,2.4149,2.4149,2.4151,2.4172,2.4168,2.4151,2.4161,2.3951,2.4146,2.4145,2.4144,2.4143,2.4143,2.3266,2.3331,2.3398,2.3483,2.3534,2.3595,2.3661,2.3701,2.3778,2.3872,2.3884,2.3984,2.4052,2.417,2.4216,2.4295,2.4276,2.4306,2.4314,2.4321,2.4326,2.4138,2.4311,2.431,2.431,2.431,2.431,0,2.3429,2.3471,2.3549,2.3639,2.3706,2.3697,2.3769,2.3826,2.3913,2.3976,2.4048,2.4155,2.4242,2.4296,2.4384,2.4437,2.4438,2.4459,2.4456,2.4465,2.4337,2.431,2.4456,2.4456,2.4456,2.4456,2.4456,2.4456,2.3522,2.3631,2.3652,2.3787,2.3829,2.3926,2.3967,2.4023,2.4074,2.4192,2.4264,2.4298,2.4358,2.445,2.4529,2.4543,2.4575,2.4597,2.461,2.4489,2.4474,2.446,2.4435,2.4604,2.4604,2.4731,2.4733,2.4733]}]]